Vorticity
19 9 -3 16 16 13 13 14 9 11 -8 6 2 4 11 15 6 2 12 8 2 0 6 16 15 12 5 5 6 -1 -1 -1 20 23 21 22 7 3 2 2 2 3 5 7
7 6 19 20 15 11 9 2 5 4 10 8 9 7 -2 10 12 11 6 6 13 3 12 4 18 4 5 6 5 4 5 4 3 2 7 7 13 17 17 7 5 4 5 5
5 -43 26 8 1 3 6 9 9 8 -2 4 14 20 17 23 -2 16 17 19 21 -8 19 13 5 5 7 8 6 4 10 5 4 5 1 4 6 14 21 15 15 9 4 4
18 25 -1 -1 -2 -9 4 4 0 2 3 16 -1 -16 4 31 19 19 9 14 21 20 15 9 21 -12 17 14 9 7 5 7 4 6 7 5 4 2 1 6 11 12 9 5
-16 -2 29 5 9 5 11 15 10 5 -2 11 10 21 31 -14 -10 19 4 9 1 22 24 26 29 23 -4 16 14 10 11 7 9 11 6 5 5 5 14 15 16 15 10 8
-1 -13 -0 13 2 11 9 4 14 17 17 45 37 -12 9 9 31 27 19 20 20 13 10 16 29 27 27 22 15 15 13 11 12 11 7 9 11 8 7 13 18 20 16 11
5 5 3 -8 -4 5 2 18 13 17 21 4 -3 39 -56 3 14 15 8 0 15 21 7 7 -9 -18 -17 11 13 13 11 9 4 6 6 7 7 10 13 11 15 19 20 13
14 56 34 16 1 -18 20 -4 -23 9 7 -0 2 17 15 22 5 0 9 12 -1 -3 13 23 25 16 16 9 -6 -19 -7 -7 2 3 6 7 6 4 1 -1 4 9 22 16
15 6 -4 30 46 23 -10 16 13 -12 -5 17 9 22 10 1 4 0 2 1 16 20 18 21 15 30 20 32 -1 2 6 14 10 5 3 7 6 8 8 7 9 5 6 22
-11 3 6 12 9 20 29 11 18 12 6 6 26 12 -5 -8 -2 6 0 7 -2 4 2 1 -1 1 -1 -5 -3 2 3 12 13 8 6 6 9 10 9 6 7 10 9 9
10 -21 11 11 5 9 13 28 -3 25 -30 4 10 17 42 20 12 23 9 11 10 2 4 -5 -1 -2 1 6 10 8 17 15 16 7 11 9 8 8 9 10 11 13 11 8
8 32 14 -1 19 14 8 6 7 -28 18 15 -27 12 3 -10 14 21 -1 -11 2 13 11 10 2 2 9 6 12 27 5 11 13 18 14 10 8 6 8 12 11 10 11 16
6 33 8 30 22 13 12 4 19 21 25 19 -14 23 -18 -36 -9 2 5 9 2 -12 -2 7 -6 7 6 8 15 8 5 3 27 18 17 16 13 9 7 8 8 12 15 8
14 -0 -5 -28 23 5 7 -4 6 12 8 2 -0 19 -17 -27 -7 -24 -10 -3 -2 0 -4 10 6 4 10 11 5 -2 -1 11 12 3 -11 18 39 25 40 25 17 9 12 16
14 7 15 19 36 17 18 3 -10 -0 6 3 -2 7 2 1 3 4 2 8 22 51 -1 13 35 18 15 -4 1 4 1 15 10 7 11 24 4 20 -3 25 26 16 13 12
9 -2 6 5 4 7 -2 -15 -4 -6 -5 5 11 10 9 18 23 38 36 -1 7 4 3 12 6 14 -6 9 10 6 11 13 6 11 14 9 1 3 7 25 19 19 10 4
11 -14 -6 17 1 18 36 7 11 5 9 22 16 15 9 15 -6 7 7 6 6 15 32 11 7 6 16 -3 -5 -4 12 12 17 5 4 5 8 11 8 33 9 22 16 2
12 6 3 18 23 14 20 2 17 6 2 8 8 5 3 12 14 9 9 14 19 22 20 16 15 13 -10 -0 9 20 20 21 7 8 8 7 6 8 1 64 27 -11 4 -7
5 8 3 -4 8 -1 -2 -9 -10 10 9 13 6 7 6 6 9 11 16 17 20 17 12 4 -1 2 11 9 7 18 16 7 11 1 0 4 5 12 16 52 11 -14 24 23
21 23 -14 9 5 -7 9 24 35 18 7 18 16 13 9 8 4 11 5 -3 -2 -5 7 13 12 14 10 20 20 10 14 6 1 5 3 2 3 13 15 25 31 11 19 3
-0 3 -3 2 -9 19 -4 -15 -34 9 -19 7 3 9 11 10 8 10 12 9 20 11 10 24 13 10 15 17 20 10 4 3 4 4 8 7 6 11 11 20 19 17 23 16
-5 -14 18 23 21 20 8 10 9 33 16 8 2 3 12 14 10 11 10 18 1 10 23 29 13 6 8 8 6 3 3 7 10 14 14 10 10 14 11 14 15 14 13 12
5 -10 5 15 -4 -24 8 8 7 -7 -12 -0 -4 -2 5 8 14 12 3 13 13 7 12 15 -2 10 7 3 3 6 11 12 11 14 14 14 12 14 15 12 13 17 13 13
1 -9 -5 -12 -4 -7 -9 -7 -16 -1 3 7 1 2 8 10 5 1 -5 -3 10 21 9 7 11 9 5 4 6 11 12 9 13 14 13 10 13 13 17 12 11 14 11 14
13 10 10 13 2 -0 -2 4 9 24 15 17 12 9 5 8 4 1 4 -3 13 14 8 3 7 6 7 12 14 13 12 13 13 13 11 10 15 19 18 16 9 9 10 11
7 5 4 4 1 5 9 9 4 6 15 15 12 5 -0 -0 4 6 3 7 20 18 9 12 4 8 14 12 10 12 13 16 12 13 14 27 8 26 20 13 9 9 11 13
Height
3118 3118 3116 3120 3120 3120 3122 3122 3121 3122 3125 3124 3122 3118 3118 3120 3119 3116 3115 3115 3114 3113 3114 3115 3115 3116 3118 3121 3123 3127 3130 3131 3132 3132 3132 3134 3136 3138 3139 3139 3138 3136 3137 3137
3113 3110 3116 3118 3117 3116 3118 3118 3117 3118 3120 3119 3116 3113 3114 3117 3114 3111 3109 3107 3107 3107 3107 3108 3107 3110 3112 3114 3118 3121 3124 3127 3129 3128 3128 3129 3130 3131 3133 3134 3133 3132 3131 3131
3108 3112 3113 3114 3113 3115 3115 3115 3116 3118 3116 3114 3111 3107 3108 3112 3109 3106 3102 3101 3101 3101 3101 3102 3102 3105 3106 3107 3113 3116 3118 3120 3121 3122 3123 3123 3124 3124 3124 3126 3127 3126 3125 3125
3105 3108 3109 3111 3110 3112 3111 3114 3115 3115 3113 3111 3110 3104 3098 3102 3100 3100 3098 3097 3096 3095 3096 3098 3099 3100 3102 3105 3109 3112 3113 3115 3116 3116 3117 3117 3117 3117 3117 3117 3118 3118 3118 3118
3099 3103 3104 3106 3109 3111 3110 3111 3112 3112 3111 3109 3107 3109 3093 3094 3093 3092 3093 3092 3094 3094 3092 3092 3094 3097 3098 3102 3106 3109 3110 3110 3110 3111 3110 3110 3110 3109 3108 3108 3108 3108 3107 3108
3093 3098 3100 3100 3104 3106 3108 3109 3109 3109 3110 3105 3102 3103 3092 3092 3091 3088 3090 3092 3091 3091 3091 3091 3092 3093 3097 3101 3103 3105 3107 3106 3105 3104 3103 3103 3103 3101 3101 3100 3099 3097 3097 3098
3089 3088 3093 3096 3098 3100 3102 3104 3108 3110 3109 3102 3099 3100 3096 3093 3092 3092 3090 3090 3089 3089 3090 3092 3094 3094 3096 3099 3100 3101 3102 3100 3100 3099 3098 3096 3094 3094 3093 3092 3090 3088 3087 3089
3083 3084 3086 3088 3088 3093 3095 3101 3104 3107 3104 3098 3097 3095 3092 3092 3092 3092 3091 3088 3086 3087 3088 3087 3090 3092 3094 3096 3096 3096 3096 3096 3094 3093 3092 3090 3087 3085 3083 3083 3084 3082 3080 3080
3076 3078 3079 3080 3084 3089 3091 3093 3100 3099 3098 3098 3093 3093 3093 3090 3090 3089 3089 3088 3084 3084 3088 3088 3089 3090 3089 3091 3092 3092 3091 3090 3090 3089 3086 3084 3081 3078 3076 3074 3073 3074 3072 3072
3073 3072 3076 3079 3083 3083 3083 3089 3093 3095 3100 3099 3088 3087 3085 3086 3086 3084 3084 3085 3084 3084 3086 3085 3087 3089 3088 3088 3087 3086 3085 3085 3084 3080 3076 3073 3071 3071 3069 3066 3064 3063 3063 3063
3066 3068 3074 3077 3076 3079 3079 3078 3084 3087 3087 3088 3089 3081 3079 3080 3079 3080 3082 3082 3083 3082 3082 3082 3084 3084 3083 3083 3081 3080 3078 3076 3074 3070 3068 3066 3063 3062 3060 3057 3054 3053 3052 3054
3059 3063 3067 3071 3070 3074 3074 3072 3075 3076 3080 3081 3082 3077 3076 3075 3074 3076 3076 3078 3079 3079 3078 3077 3075 3074 3074 3074 3073 3074 3072 3070 3067 3064 3061 3060 3057 3054 3051 3048 3044 3042 3041 3042
3052 3057 3063 3066 3068 3067 3070 3068 3068 3069 3071 3073 3076 3074 3072 3069 3071 3072 3074 3074 3075 3075 3075 3072 3068 3067 3066 3065 3064 3064 3064 3063 3061 3059 3055 3051 3047 3043 3039 3038 3035 3032 3031 3030
3046 3050 3051 3051 3053 3058 3063 3065 3064 3065 3066 3068 3067 3067 3067 3067 3067 3070 3071 3070 3068 3068 3068 3065 3062 3061 3060 3059 3058 3057 3055 3052 3050 3048 3046 3042 3037 3033 3030 3027 3024 3024 3023 3022
3041 3045 3046 3049 3052 3055 3056 3059 3059 3061 3065 3066 3064 3064 3059 3063 3062 3059 3059 3060 3059 3058 3056 3054 3055 3054 3055 3055 3053 3051 3048 3045 3042 3041 3037 3034 3030 3026 3023 3018 3015 3014 3014 3014
3034 3039 3043 3047 3049 3052 3053 3053 3053 3057 3060 3060 3059 3057 3060 3056 3053 3052 3051 3051 3050 3049 3048 3049 3050 3050 3049 3049 3047 3045 3042 3038 3035 3032 3029 3024 3020 3017 3013 3007 3005 3005 3004 3005
3030 3034 3040 3042 3046 3047 3047 3046 3050 3050 3052 3053 3053 3052 3049 3047 3044 3044 3044 3044 3043 3042 3042 3043 3043 3043 3043 3042 3040 3038 3035 3032 3029 3027 3023 3018 3014 3011 3005 2999 2995 2996 2995 2996
3026 3030 3034 3040 3044 3048 3039 3039 3042 3043 3044 3045 3045 3045 3044 3042 3040 3038 3036 3036 3036 3037 3037 3037 3037 3036 3035 3035 3033 3029 3026 3023 3022 3019 3015 3012 3008 3003 2997 2991 2988 2986 2987 2988
3022 3025 3030 3034 3034 3033 3030 3032 3035 3036 3038 3038 3038 3038 3037 3036 3035 3034 3033 3031 3031 3032 3032 3031 3030 3029 3029 3027 3024 3022 3019 3018 3015 3012 3009 3006 3001 2995 2989 2983 2980 2978 2979 2981
3018 3022 3024 3027 3029 3028 3022 3024 3028 3029 3029 3029 3030 3030 3030 3029 3029 3028 3027 3026 3026 3025 3024 3023 3022 3020 3019 3018 3016 3014 3013 3012 3009 3006 3003 2998 2993 2988 2982 2977 2974 2973 2975 2975
3011 3016 3018 3019 3024 3021 3016 3020 3023 3026 3025 3024 3024 3024 3024 3023 3022 3021 3021 3021 3020 3019 3016 3016 3015 3013 3011 3009 3009 3008 3007 3004 3002 2998 2995 2990 2986 2980 2975 2971 2969 2968 2968 2968
3004 3009 3011 3016 3019 3015 3010 3013 3015 3017 3016 3017 3016 3016 3016 3016 3016 3015 3015 3015 3014 3013 3011 3010 3009 3008 3005 3004 3003 3002 3000 2997 2994 2990 2987 2982 2979 2975 2969 2965 2964 2964 2963 2963
2998 2999 3004 3006 3001 3003 3006 3006 3007 3008 3009 3010 3010 3009 3008 3009 3010 3010 3009 3009 3008 3006 3005 3004 3003 3001 2999 2998 2997 2995 2992 2988 2985 2982 2978 2975 2972 2969 2966 2960 2960 2962 2959 2960
2990 2993 2995 2997 2996 2998 2999 2999 3000 3001 3000 3000 3001 3000 3000 3001 3002 3003 3002 3001 3000 2999 2996 2995 2997 2995 2992 2991 2989 2987 2983 2980 2977 2974 2971 2968 2965 2962 2960 2958 2956 2958 2955 2958
2986 2985 2984 2985 2986 2988 2991 2991 2991 2991 2992 2992 2993 2993 2993 2993 2993 2993 2993 2993 2993 2992 2991 2988 2987 2986 2985 2983 2981 2978 2975 2972 2970 2966 2963 2961 2959 2958 2956 2955 2955 2953 2954 2955
2976 2975 2977 2973 2978 2978 2979 2982 2982 2982 2982 2983 2983 2984 2984 2982 2983 2984 2985 2984 2983 2982 2982 2982 2980 2979 2978 2976 2974 2971 2968 2966 2962 2959 2957 2955 2954 2954 2952 2952 2953 2951 2953 2952